Other Public Products
Issued by NWS Grand Forks, ND

Home | Current Version | Previous Version | Graphics & Text | Print | Product List | Glossary On
Versions: 1 2 3 4 5 6 7 8 9 10 11 12 13 14 15 16 17 18 19 20 21 22 23 24 25 26 27 28 29 30 31 32 33 34 35 36 37 38 39 40 41 42 43 44 45 46 47 48 49 50
000
FPUS83 KFGF 132131
OPUFGF
PRAIRIE TO PINES WEATHER ROUNDUP
NATIONAL WEATHER SERVICE EASTERN NORTH DAKOTA/GRAND FORKS ND
300 PM CST SAT FEB 13 2016

 **SATELLITE DATA USED TO AUGMENT SKY COVER AT AUTOMATED STATIONS**
 *****  WEATHER ACROSS EASTERN NORTH DAKOTA  *****

CITY           SKY/WX    TMP DP  RH WIND       PRES   REMARKS
GRAND FORKS    CLOUDY    10  -2  58 S20       30.30F WCI  -9
GRAND FORKS AF CLOUDY     9  -3  60 S18       30.27F WCI -10
GRAND CITY NWS NOT AVBL
BUXTON           N/A    N/A N/A N/A CALM        N/A
DEVILS LAKE    CLOUDY     6  -1  73 SE20G25   30.12F WCI -14
FARGO          CLOUDY    12   0  58 SE16G25   30.30F WCI  -5
WAHPETON ARPT  CLOUDY    12   1  62 SE22      30.31F WCI  -7
$$

 *****  WEATHER ACROSS CENTRAL AND WESTERN NORTH DAKOTA  *****

CITY           SKY/WX    TMP DP  RH WIND       PRES   REMARKS
JAMESTOWN      CLOUDY     9   0  67 SE16G26   30.13F WCI  -8
BISMARCK       LGT SNOW  18  10  71 SE21      29.97F WCI   1
MINOT          FLURRIES  18   7  62 SE15G23   29.95F WCI   4
MINOT AFB      CLOUDY    18  10  73 S15       29.94S WCI   3
GARRISON         N/A     13   9  84 S15       29.95F WCI  -3
WILLISTON      HVY SNOW  20  17  88 SE12      29.81F VSB 1/4 WCI   8
DICKINSON      CLOUDY    19  16  88 S18       29.80F FOG     WCI   4
HETTINGER      CLOUDY    23  20  88 VRB3      29.85R
$$

 *****  OTHER OBSERVATIONS NORTHEAST NORTH DAKOTA  *****

CITY           SKY/WX    TMP DP  RH WIND       PRES   REMARKS
WALHALLA       FAIR       7   0  72 SE17G25   30.24F WCI -12
LANGDON        CLOUDY     7  -2  66 SE24      30.13F HAZE    WCI -15
CAVALIER       FAIR       7  -2  66 SE16G22   30.26F WCI -11
GRAFTON        FAIR       5  -2  72 SE20      30.29F WCI -15
CANDO          CLOUDY     7   0  72 SE25      30.10F WCI -15
FORT TOTTEN      N/A      6  -3  65 SE14      29.95S WCI -11
ROLLA          CLOUDY     5  -2  72 S23G29    30.03F WCI -17
RUGBY          CLOUDY     9   1  72 SE20G26   30.02F WCI -11
 ***** THE ABOVE OBSERVATIONS ARE NON NWS ARE NOT QUALITY
        CONTROLLED AND MAY MIS-REPORT RAIN FOR SNOW...
$$

 *****  OTHER OBSERVATIONS SOUTHEAST NORTH DAKOTA *****

CITY           SKY/WX    TMP DP  RH WIND       PRES   REMARKS
COOPERSTOWN    NOT AVBL
VALLEY CITY    FLURRIES   7   0  72 SE20G28   30.19F WCI -13
OAKES          CLOUDY    12   0  57 SE21G29   30.17F WCI  -6
GWINNER        CLOUDY     9   3  78 SE22G28   30.21F WCI -11
SHEYENNE NWR     N/A      9  -3  59 SE14      29.95S WCI  -7
BUFFALO          N/A      7  -2  66 SE22        N/A  WCI -13
WYNDMERE         N/A      9   0  66 SE21        N/A  WCI -11
 ***** THE ABOVE OBSERVATIONS ARE NON NWS ARE NOT QUALITY
       CONTROLLED AND MAY MIS-REPORT RAIN FOR SNOW...
$$

  *****  WEATHER ACROSS NORTHERN MINNESOTA  *****

CITY           SKY/WX    TMP DP  RH WIND       PRES   REMARKS
FLAG ISLAND    CLOUDY     1 -15  46 SE6       30.36F WCI -10
WARROAD        CLOUDY     3  -8  60 NE7       30.35F WCI  -9
ROSEAU         CLOUDY     7  -6  56 E8        30.33F WCI  -6
HALLOCK        CLOUDY     9  -6  52 SE18      30.30F WCI -10
THF RVR FALLS  CLOUDY     9  -9  43 SE15      30.31F WCI  -8
HALSTAD          N/A     12   3  67 S21         N/A  WCI  -6
FOSSTON        SUNNY     18   0  45 SE7       30.30F WCI   8
BAUDETTE       CLOUDY     6 -13  41 SE8       30.36F WCI  -7
WASKISH        CLOUDY    12  -9  37 SE6       30.34F WCI   3
CROOKSTON      CLOUDY     9  -2  61 S17       30.32F WCI -10
$$
  *****  WEATHER ACROSS CENTRAL AND WEST MINNESOTA  *****

CITY           SKY/WX    TMP DP  RH WIND       PRES   REMARKS
BEMIDJI        SUNNY      8  -9  45 SE9       30.33F WCI  -5
PARK RAPIDS    SUNNY     11 -10  38 SE10      30.33F WCI  -3
WADENA         CLOUDY     9  -8  47 SE13      30.34F WCI  -7
DETROIT LAKES  CLOUDY    12  -4  48 SE15      30.30F WCI  -4
MOORHEAD       CLOUDY    12   0  57 S21       30.30F WCI  -6
FERGUS FALLS   CLOUDY    10   0  61 S20       30.36F WCI  -8
ELBOW LAKE     CLOUDY    11   0  61 SE17      30.33F WCI  -7
MORRIS MN      CLOUDY    10   1  67 SE20      30.33F WCI  -8
STAPLES        SUNNY      9 -11  40 SE7       30.37F WCI  -3
WHEATON        CLOUDY    10   1  67 SE20      30.33F WCI  -8
$$
  *****  WEATHER ELSEWHERE ACROSS MINNESOTA  *****

CITY           SKY/WX    TMP DP  RH WIND       PRES   REMARKS
DULUTH         SUNNY      8 -13  37 CALM      30.39F
INTRNTL FALLS  CLOUDY     5 -15  39 SE5       30.39F WCI  -4
ELY            SUNNY      7  -9  47 CALM      30.38F
CLOQUET        SUNNY      9 -17  31 S5        30.40F WCI   0
BRAINERD       SUNNY      7 -10  46 S7        30.41F WCI  -5
HIBBING        SUNNY      7 -14  37 NW5       30.38F WCI  -2
ALEXANDRIA     CLOUDY    10  -5  50 SE15      30.34F WCI  -7
SAINT CLOUD    SUNNY      9  -6  50 SE13      30.43F WCI  -7
MINNEAPOLIS    SUNNY      9 -10  42 SE8       30.49F WCI  -3
$$

  *****  WEATHER ACROSS SOUTH DAKOTA  *****

CITY           SKY/WX    TMP DP  RH WIND       PRES   REMARKS
SIOUX FALLS    FLURRIES   9  -1  64 SE17      30.30F WCI  -9
BROOKINGS      CLOUDY     9   0  66 SE18      30.26F WCI -10
WATERTOWN      CLOUDY     8  -3  61 SE20      30.22F WCI -11
HURON          CLOUDY    13   3  64 SE22G32   30.18F WCI  -6
SISSETON         N/A      8   0  69 S21       30.28F WCI -12
ABERDEEN       CLOUDY    15   4  61 S28       30.17F WCI  -5
MITCHELL       CLOUDY    13   5  70 SE24G33   30.23F WCI  -7
PIERRE         CLOUDY    28  19  69 SE20      29.98F WCI  15
MOBRIDGE       CLOUDY    20  15  81 SE23      29.94F HAZE    WCI   3
RAPID CITY     SUNNY     50  32  50 S9        29.78F
$$

  *****  SOME WEATHER IN NEARBY STATES *****

CITY           SKY/WX    TMP DP  RH WIND       PRES   REMARKS
GLASGOW MT     CLOUDY    30  27  88 SW3       29.78F
GREAT FALLS MT PTSUNNY   46  19  34 W29G35    29.94S
CHEYENNE WY    SUNNY     59  16  18 W24G38    29.95F
SCOTTSBLUFF NE PTSUNNY   51  32  48 CALM      29.87F
OMAHA NE       CLOUDY    18   5  57 SE15      30.40F WCI   4
DES MOINES IA  CLOUDY    14  -2  49 SE9       30.49F WCI   2
DAVENPORT IA   CLOUDY    18  -7  32 N3        30.54F
CHICAGO IL     MOSUNNY   17  -5  37 NW9       30.53S WCI   6
EAU CLAIRE WI  SUNNY      6 -11  45 CALM      30.51F
LA CROSSE WI   SUNNY     10 -10  40 CALM      30.53F
$$

  *****  SOME NATIONAL WEATHER *****

CITY           SKY/WX    TMP DP  RH WIND       PRES   REMARKS
LA GUARDIA NY  MOSUNNY   17  -4  39 NW32G41   30.15R WCI  -3
RALEIGH NC     MOSUNNY   33  -2  22 N7G16     30.29S
ATLANTA GA     SUNNY     42   6  22 NW13G23   30.32F
NEW ORLEANS LA MOSUNNY   61  30  31 NE8       30.35F
OKLAHOMA CITY  MOSUNNY   57  31  37 S15       30.18F
ALBUQUERQUE NM MOSUNNY   65  14  14 SW7       30.15F
SALT LAKE CITY CLOUDY    31  28  89 NW5       30.33F FOG
LOS ANGELES CA MOSUNNY   59  52  77 W14       30.07R FOG
BOISE ID       MOSUNNY   50  31  48 NW12      30.31F
SEATTLE WA     LGT RAIN  50  42  74 S15G23    30.19F
$$

*** WEATHER ACROSS MANITOBA...SASKATCHEWAN AND ONTARIO ***
                ***ONTARIO***

CITY           SKY/WX    TMP DP  RH WIND       PRES   REMARKS
GERALDTON      MOSUNNY   -2 -15  55 W6        30.35S WCI -14
THUNDER BAY    MOSUNNY    7 -11  43 W7        30.45F WCI  -5
SIOUX LOOKOUT  PTSUNNY    0 -15  50 SW3       30.38F
TORONTO        MOSUNNY    1 -17  42 NW14G22   30.33R WCI -17
BIG TROUT LK   SUNNY     -4 -13  65 S6        30.35F WCI -16
PICKLE LAKE    CRYSTALS   1 -13  51 W5        30.33F WCI  -8
DRYDEN         SUNNY      1 -13  51 S7        30.37F WCI -11
KENORA         PTSUNNY    1 -13  51 SE5       30.36F WCI  -8
$$
                *** MANITOBA***

CITY           SKY/WX    TMP DP  RH WIND       PRES   REMARKS
BRANDON        FLURRIES   7  -2  66 SE12G21   30.08F WCI  -9
DAUPHIN        CLOUDY     5  -4  66 SE15      30.07F WCI -13
ISLAND LAKE    MOSUNNY    1  -9  60 SE8       30.29F WCI -12
PILOT MOUND      N/A      3  -2  78 SE23G29     N/A  WCI -19
THE PAS        PTSUNNY    3  -9  55 SE22G28   30.00F WCI -19
THOMPSON       MOSUNNY    3  -9  55 S13G20    30.11F WCI -14
WINNIPEG       PTSUNNY    5  -9  51 SE18      30.29F WCI -15
LYNN LAKE      FLURRIES   9  -4  56 S12G21    29.85F WCI  -6
CHURCHILL      CLOUDY    -2 -13  60 S12       30.15F WCI -20
GILLAM         CLOUDY     1 -13  51 S8        30.22F WCI -12
$$
                ***SASKATCHEWAN***

CITY           SKY/WX    TMP DP  RH WIND       PRES   REMARKS
ESTEVAN        FLURRIES  18  10  73 SE16      29.84F WCI   3
KINDERSLEY     CLOUDY    25  21  86 NW10      29.77F WCI  15
LLOYDMINSTER   PTSUNNY   25  23  93 W9        29.73S WCI  15
PRINCE ALBERT  FLURRIES   9   3  78 E7        29.83F WCI  -3
REGINA         CLOUDY    21  16  79 SE21G26   29.75F WCI   6
YORKTON        LGT SNOW   7   3  85 SE17G25   29.88F WCC1F1C2F2C3F3C4F4C5F5C6F6C7F7C8F8C9F9CaFaCbFbCcFcCdFdCe!


USA.gov is the U.S. government's official web portal to all federal, state and local government web resources and services.